[[[{"header":{"parameterUnit":"kt","parameterCategory":2,"dx":1,"dy":1,"la1":30.253999710083008,"la2":30.299108505249023,"lo1":-89.0895004272461,"lo2":-89.04439544677734,"nx":28,"ny":28,"refTime":"2022-11-01T21:00:00:Z","depth":0,"parameterNumber":1,"parameterNumberName":"U-component_of_WINDS"},"data":[-0.8572,-0.8555,-0.8583,-0.8576,-0.86,-0.86,-0.8609,-0.8623,-0.8642,-0.8645,-0.8652,-0.8678,-0.8708,-0.8723,-0.8732,-0.8744,-0.8745,-0.8719,-0.8737,-0.8829,-0.8843,-0.8857,-0.8862,-0.8719,-0.8719,-0.8637,-0.8637,-0.8636,-0.8637,-0.866,-0.8664,-0.8687,-0.8692,-0.8733,-0.8755,-0.8756,-0.8755,-0.8778,-0.8786,-0.8792,-0.88,-0.8839,-0.8852,-0.8845,-0.8865,-0.8846,-0.8846,-0.885,-0.8949,-0.8955,-0.8829,-0.8829,-0.8829,-0.8829,-0.8829,-0.8829,-0.8761,-0.875,-0.878,-0.8786,-0.8805,-0.8821,-0.8815,-0.8847,-0.8852,-0.8869,-0.8901,-0.8901,-0.8929,-0.8958,-0.8974,-0.8975,-0.9001,-0.8989,-0.8986,-0.8982,-0.8973,-0.9085,-0.8979,-0.8979,-0.898,-0.898,-0.898,0,-0.8861,-0.8885,-0.8891,-0.8906,-0.8912,-0.8926,-0.8943,-0.8941,-0.9001,-0.9003,-0.9008,-0.9015,-0.903,-0.9037,-0.9055,-0.9076,-0.9119,-0.9127,-0.9118,-0.9101,-0.9084,-0.9092,-0.9252,-0.9129,-0.913,-0.9131,-0.9132,-0.9133,-0.8988,-0.8972,-0.9017,-0.9018,-0.9035,-0.9035,-0.9042,-0.9096,-0.91,-0.913,-0.9118,-0.9127,-0.9136,-0.9139,-0.9178,-0.9189,-0.921,-0.9159,-0.9211,-0.9196,-0.9208,-0.9207,-0.9206,-0.9148,-0.9146,-0.9144,-0.9143,0,-0.9056,-0.9102,-0.9087,-0.9134,-0.9145,-0.9125,-0.9166,-0.9157,-0.919,-0.9183,-0.9184,-0.9236,-0.9239,-0.9287,-0.93,-0.9325,-0.9293,-0.9313,-0.9283,-0.9289,-0.9248,-0.9251,-0.911,-0.9094,-0.9244,-0.9243,-0.9242,0,-0.9182,-0.9159,-0.9229,-0.9217,-0.9194,-0.925,-0.9225,-0.9251,-0.9277,-0.9272,-0.9329,-0.9323,-0.9384,-0.9385,-0.9421,-0.9403,-0.9406,-0.9424,-0.9433,-0.9417,-0.9415,-0.9419,-0.9425,-0.9457,-0.9458,-0.9458,-0.9459,0,-0.9283,-0.9295,-0.9277,-0.9287,-0.9334,-0.9325,-0.9344,-0.9374,-0.9379,-0.9394,-0.9398,-0.9411,-0.9418,-0.9428,-0.9473,-0.9507,-0.9454,-0.9509,-0.9471,-0.9469,-0.9455,-0.9455,-0.932,-0.9459,-0.946,-0.946,-0.946,0,-0.9392,-0.9406,-0.9373,-0.9415,-0.9415,-0.9403,-0.942,-0.9422,-0.9448,-0.947,-0.9483,-0.9526,-0.9515,-0.9567,-0.9553,-0.9583,-0.9587,-0.9603,-0.9601,-0.9601,-0.9657,-0.9572,-0.944,-0.9427,-0.9603,-0.9605,-0.9606,0,-0.9495,-0.9474,-0.9523,-0.949,-0.9487,-0.9552,-0.954,-0.9562,-0.9591,-0.9593,-0.9625,-0.9626,-0.9674,-0.9681,-0.9668,-0.9701,-0.9661,-0.9708,-0.9708,-0.9707,-0.9697,-0.9576,-0.9544,-0.9464,-0.9622,-0.962,-0.9619,0,-0.958,-0.9639,-0.963,-0.9644,-0.9683,-0.9681,-0.9667,-0.9681,-0.9679,-0.9699,-0.9688,-0.9692,-0.9728,-0.9739,-0.9775,-0.9759,-0.969,-0.98,-0.9802,-0.9778,-0.9634,-0.9604,-0.959,-0.9718,-0.9716,-0.9714,-0.9632,0,-0.9731,-0.9728,-0.9706,-0.9734,-0.974,-0.9723,-0.9773,-0.9773,-0.9808,-0.9839,-0.9825,-0.9855,-0.9869,-0.9867,-0.99,-0.9849,-0.9865,-0.9903,-0.9955,-0.9876,-0.985,-0.984,-0.999,-0.9992,-0.9994,-0.9995,0,0,-0.9818,-0.9814,-0.9867,-0.9856,-0.9864,-0.9932,-0.9909,-0.9925,-0.9955,-0.9959,-0.9989,-0.9997,-1.0021,-0.9998,-0.9977,-0.9983,-0.9978,-1.0004,-0.9914,-0.9905,-0.9896,-0.9867,-0.9856,-0.9998,-0.9998,-0.9999,-0.9999,0,-0.9883,-0.9907,-0.9884,-0.9903,-0.9933,-0.9967,-0.9962,-1.0003,-1.0022,-1.0009,-1.0063,-1.0061,-1.0066,-1.0084,-1.0093,-1.0009,-1.0049,-1.0009,-0.9946,-0.9928,-0.9916,-0.9907,-0.9876,-0.9864,-1.0003,-1.0003,-1.0003,0,-0.9975,-1.0007,-1.0001,-1.0024,-1.0045,-1.004,-1.0108,-1.01,-1.0097,-1.0171,-1.0156,-1.018,-1.0207,-1.018,-1.0169,-1.0196,-1.0111,-1.0147,-1.0139,-1.0138,-1.0122,-1.0109,-1.0096,-1.0257,-1.0257,-1.0258,0,0,-1.0025,-1.0022,-1.0073,-1.0042,-1.0051,-1.0101,-1.0104,-1.0139,-1.0163,-1.0172,-1.0203,-1.0223,-1.0228,-1.0229,-1.0235,-1.0198,-1.0207,-1.0176,-1.0164,-1.0154,-1.0148,-1.013,-1.0116,-1.026,-1.026,-1.0261,0,0,-1.0049,-1.0106,-1.0137,-1.0108,-1.0129,-1.0176,-1.0155,-1.0194,-1.0205,-1.0213,-1.0271,-1.0279,-1.0255,-1.0275,-1.0304,-1.0254,-1.0305,-1.0299,-1.0241,-1.0227,-1.0215,-1.021,-1.0376,0,0,0,0,0,-1.0141,-1.0099,-1.0127,-1.013,-1.0159,-1.0161,-1.0165,-1.0212,-1.0248,-1.023,-1.0262,-1.0306,-1.0303,-1.0329,-1.0331,-1.0298,-1.0293,-1.0288,-1.0282,-1.0199,-1.0183,-1.017,0,0,0,0,0,0,-1.0143,-1.0146,-1.0128,-1.0173,-1.018,-1.0163,-1.0233,-1.0245,-1.0251,-1.0259,-1.0299,-1.0307,-1.0348,-1.0332,-1.0332,-1.03,-1.0376,-1.0291,-1.0286,-1.0282,-1.0193,-1.0181,-1.017,0,0,0,0,0,-1.0144,-1.0147,-1.0181,-1.0174,-1.018,-1.0233,-1.0235,-1.0245,-1.0251,-1.03,-1.0311,-1.0286,-1.0345,-1.0349,-1.0332,-1.0299,-1.0376,-1.0376,-1.0288,-1.0284,-1.028,-1.0187,0,0,0,0,0,0,-1.0145,-1.0156,-1.0183,-1.0187,-1.0193,-1.0235,-1.0243,-1.0245,-1.0292,-1.0302,-1.0291,-1.0297,-1.0343,-1.0347,-1.0349,-1.0295,-1.0376,-1.0376,-1.0376,-1.0285,-1.0282,-1.0279,0,0,0,0,0,0,-1.0155,-1.0159,-1.0185,-1.0207,-1.0214,-1.0236,-1.0244,-1.0236,-1.0292,-1.028,-1.0287,-1.0293,-1.0339,-1.0345,-1.0347,-1.0333,-1.0376,-1.0376,-1.0376,-1.0376,-1.0282,-1.028,0,0,0,0,0,0,-1.0158,-1.0161,-1.0207,-1.0212,-1.0218,-1.0262,-1.0231,-1.0258,-1.0311,-1.0277,-1.0317,-1.032,-1.0336,-1.0339,-1.0345,-1.033,-1.0333,-1.0376,-1.0376,-1.0376,-1.0376,0,0,0,0,0,0,0,-1.016,-1.0128,-1.0162,-1.0215,-1.0221,-1.0221,-1.0222,-1.0223,-1.0312,-1.0314,-1.0317,-1.0319,-1.0376,-1.0376,-1.0376,-1.0327,0,0,-1.0376,-1.0376,0,0,0,0,0,0,0,0,-1.0127,-1.0128,-1.0162,-1.0163,-1.0164,-1.0221,-1.0221,-1.0222,-1.0312,-1.0314,-1.0316,-1.0318,-1.0376,-1.0376,-1.0376,0,0,0,0,0,0,0,0,0,0,0,0,0,0,0,-1.0162,-1.0163,0,-1.0221,-1.0221,-1.0222,-1.0313,-1.0314,-1.0316,-1.0317,-1.0376,-1.0376,-1.0376,0,0,0,0,0,0,0,0,0,0,0,0,0,0,0,0,0,0,0,0,0,0,0,0,0,0,0,0,0,0,0,0,0,0,0,0,0,0,0,0,0,0,0,0,0,0,0,0,0,0,0,0,0,0,0,0,0,0,0,0,0,0,0,0,0,0,0,0,0]}],[{"header":{"parameterUnit":"kt","parameterCategory":2,"dx":1,"dy":1,"la1":30.253999710083008,"la2":30.299108505249023,"lo1":-89.0895004272461,"lo2":-89.04439544677734,"nx":28,"ny":28,"refTime":"2022-11-01T21:00:00:Z","depth":0,"parameterNumber":2,"parameterNumberName":"V-component_of_WINDS"},"data":[-3.2982,-3.3028,-3.3056,-3.3121,-3.3157,-3.3206,-3.3232,-3.3268,-3.3303,-3.3363,-3.3402,-3.3433,-3.3478,-3.3529,-3.3572,-3.3584,-3.36,-3.3598,-3.3613,-3.3601,-3.3602,-3.3602,-3.3593,-3.3601,-3.3601,-3.362,-3.362,-3.3621,-3.2974,-3.3011,-3.3053,-3.3113,-3.3149,-3.3169,-3.3217,-3.3246,-3.3288,-3.3331,-3.3371,-3.3425,-3.347,-3.3516,-3.3564,-3.3585,-3.3596,-3.3596,-3.3594,-3.3601,-3.359,-3.3581,-3.3587,-3.3587,-3.3587,-3.3587,-3.3587,-3.3587,-3.2968,-3.2994,-3.3047,-3.3093,-3.313,-3.3169,-3.3198,-3.3236,-3.3277,-3.3331,-3.3354,-3.3401,-3.3448,-3.3518,-3.3547,-3.3584,-3.3588,-3.3596,-3.3598,-3.3599,-3.3597,-3.3567,-3.3593,-3.3593,-3.3593,-3.3593,-3.3593,0,-3.2972,-3.2993,-3.3035,-3.3086,-3.3121,-3.3161,-3.3203,-3.3222,-3.3273,-3.3304,-3.3351,-3.3382,-3.3442,-3.3488,-3.3537,-3.3566,-3.3587,-3.3592,-3.3597,-3.3587,-3.3572,-3.3581,-3.3562,-3.359,-3.359,-3.359,-3.359,-3.359,-3.2967,-3.2994,-3.3061,-3.3087,-3.3117,-3.3157,-3.3186,-3.323,-3.3259,-3.3315,-3.3335,-3.3382,-3.3421,-3.3489,-3.353,-3.3574,-3.3584,-3.3592,-3.3591,-3.3581,-3.3585,-3.3583,-3.3586,-3.3591,-3.3591,-3.3591,-3.3591,0,-3.2962,-3.3007,-3.3057,-3.312,-3.3136,-3.3162,-3.3215,-3.3241,-3.3274,-3.3315,-3.3327,-3.3378,-3.3421,-3.3461,-3.3518,-3.3537,-3.3579,-3.3588,-3.3564,-3.3568,-3.3579,-3.3577,-3.3608,-3.3615,-3.3607,-3.3607,-3.3607,0,-3.2976,-3.3008,-3.3072,-3.3099,-3.3137,-3.318,-3.3216,-3.3248,-3.3289,-3.3322,-3.3353,-3.3383,-3.3429,-3.3464,-3.3493,-3.3533,-3.3544,-3.3561,-3.3568,-3.3558,-3.3556,-3.3572,-3.3572,-3.3582,-3.3582,-3.3582,-3.3582,0,-3.2963,-3.3035,-3.3079,-3.3102,-3.3171,-3.319,-3.3219,-3.3265,-3.3292,-3.3334,-3.3352,-3.3397,-3.3421,-3.3455,-3.3491,-3.3488,-3.3541,-3.3545,-3.3558,-3.3558,-3.3567,-3.3566,-3.3584,-3.3581,-3.3581,-3.3581,-3.3581,0,-3.298,-3.3023,-3.3079,-3.3138,-3.3155,-3.3182,-3.3231,-3.3263,-3.3309,-3.333,-3.3362,-3.3387,-3.3425,-3.3427,-3.348,-3.3467,-3.3489,-3.3509,-3.3511,-3.3516,-3.3516,-3.3521,-3.3535,-3.3538,-3.3522,-3.3521,-3.3521,0,-3.2953,-3.3021,-3.3059,-3.3111,-3.3148,-3.3181,-3.3213,-3.3252,-3.3282,-3.3317,-3.3349,-3.3387,-3.3396,-3.3413,-3.3435,-3.3468,-3.3485,-3.3467,-3.3515,-3.3516,-3.3502,-3.3516,-3.3508,-3.3528,-3.3515,-3.3516,-3.3516,0,-3.2938,-3.3023,-3.3029,-3.3058,-3.3118,-3.3148,-3.3183,-3.3232,-3.3253,-3.3293,-3.3324,-3.3377,-3.3387,-3.3414,-3.3438,-3.3458,-3.3475,-3.3465,-3.3467,-3.3466,-3.3515,-3.3508,-3.3511,-3.3487,-3.3487,-3.3488,-3.3512,0,-3.2955,-3.2994,-3.3013,-3.3073,-3.3103,-3.3137,-3.318,-3.3206,-3.3227,-3.3257,-3.3302,-3.3343,-3.3389,-3.3402,-3.3422,-3.3455,-3.3455,-3.3464,-3.3468,-3.3476,-3.3485,-3.3488,-3.3451,-3.3452,-3.3452,-3.3452,0,0,-3.2919,-3.2975,-3.3015,-3.3051,-3.3079,-3.3112,-3.3145,-3.3175,-3.3233,-3.3251,-3.3254,-3.3335,-3.3367,-3.3416,-3.3422,-3.344,-3.345,-3.3445,-3.3472,-3.3474,-3.3476,-3.3484,-3.3487,-3.3453,-3.3453,-3.3453,-3.3453,0,-3.2934,-3.2969,-3.3001,-3.3035,-3.3086,-3.3117,-3.3124,-3.318,-3.32,-3.3244,-3.3269,-3.3301,-3.3363,-3.3394,-3.3418,-3.3441,-3.3456,-3.3451,-3.345,-3.3473,-3.3475,-3.3476,-3.3485,-3.3487,-3.3454,-3.3454,-3.3454,0,-3.2927,-3.2969,-3.2989,-3.3053,-3.3086,-3.3122,-3.3137,-3.3174,-3.32,-3.3232,-3.3274,-3.3302,-3.3347,-3.3388,-3.3407,-3.341,-3.346,-3.3451,-3.345,-3.3453,-3.3477,-3.3478,-3.348,-3.3458,-3.3458,-3.3458,0,0,-3.2933,-3.297,-3.3027,-3.3059,-3.3079,-3.3124,-3.3147,-3.317,-3.3211,-3.3227,-3.3263,-3.33,-3.3337,-3.336,-3.3396,-3.3435,-3.3447,-3.3449,-3.3449,-3.3449,-3.3451,-3.3475,-3.3477,-3.3457,-3.3457,-3.3457,0,0,-3.2936,-3.3005,-3.3019,-3.3063,-3.3102,-3.3159,-3.3176,-3.3195,-3.3232,-3.3232,-3.3271,-3.3283,-3.3321,-3.3347,-3.3335,-3.3398,-3.3401,-3.3404,-3.338,-3.338,-3.338,-3.3373,-3.3354,0,0,0,0,0,-3.2973,-3.2997,-3.3009,-3.3023,-3.3102,-3.3152,-3.3162,-3.3196,-3.3198,-3.3211,-3.3244,-3.326,-3.3349,-3.3339,-3.3351,-3.3363,-3.345,-3.3451,-3.3452,-3.3431,-3.3431,-3.343,0,0,0,0,0,0,-3.2979,-3.2996,-3.3009,-3.3066,-3.3085,-3.3152,-3.3162,-3.3172,-3.3198,-3.32,-3.3253,-3.3261,-3.329,-3.3335,-3.3346,-3.3357,-3.3351,-3.3451,-3.3452,-3.3453,-3.3431,-3.3431,-3.343,0,0,0,0,0,-3.2984,-3.2997,-3.3116,-3.3066,-3.3082,-3.3133,-3.3162,-3.317,-3.319,-3.324,-3.3249,-3.3214,-3.3289,-3.33,-3.3342,-3.3351,-3.3344,-3.3347,-3.3451,-3.3452,-3.3453,-3.3431,0,0,0,0,0,0,-3.2987,-3.3005,-3.312,-3.3126,-3.306,-3.313,-3.3142,-3.3168,-3.3229,-3.3238,-3.3203,-3.3204,-3.3289,-3.3297,-3.3305,-3.3348,-3.3338,-3.3342,-3.3344,-3.3452,-3.3453,-3.3453,0,0,0,0,0,0,-3.2998,-3.3009,-3.3123,-3.3113,-3.3119,-3.3127,-3.3138,-3.3177,-3.3229,-3.3188,-3.3191,-3.3202,-3.3276,-3.3296,-3.3302,-3.3362,-3.3334,-3.3337,-3.334,-3.3342,-3.3452,-3.3453,0,0,0,0,0,0,-3.3003,-3.3013,-3.3112,-3.3116,-3.3121,-3.319,-3.3162,-3.3241,-3.3223,-3.3185,-3.3223,-3.3222,-3.3274,-3.3281,-3.33,-3.3357,-3.3361,-3.3334,-3.3336,-3.3338,-3.3339,0,0,0,0,0,0,0,-3.3008,-3.2932,-3.3085,-3.3118,-3.3122,-3.3182,-3.3183,-3.3185,-3.3223,-3.3223,-3.3223,-3.3222,-3.3314,-3.3317,-3.3321,-3.3353,0,0,-3.3334,-3.3335,0,0,0,0,0,0,0,0,-3.2928,-3.2931,-3.3085,-3.3086,-3.3087,-3.3182,-3.3183,-3.3184,-3.3223,-3.3223,-3.3223,-3.3222,-3.3315,-3.3318,-3.3321,0,0,0,0,0,0,0,0,0,0,0,0,0,0,0,-3.3085,-3.3086,0,-3.3182,-3.3183,-3.3184,-3.3223,-3.3223,-3.3223,-3.3223,-3.3316,-3.3318,-3.3321,0,0,0,0,0,0,0,0,0,0,0,0,0,0,0,0,0,0,0,0,0,0,0,0,0,0,0,0,0,0,0,0,0,0,0,0,0,0,0,0,0,0,0,0,0,0,0,0,0,0,0,0,0,0,0,0,0,0,0,0,0,0,0,0,0,0,0,0,0]}]]]